Regional Weather Roundup
Issued by NWS

Home | Current Version | Previous Version | Text Only | Print | Product List | Glossary On
Versions: 1 2 3 4 5 6 7 8 9 10 11 12 13 14 15 16 17 18 19 20 21 22 23 24 25 26 27 28 29 30 31 32 33 34 35 36 37 38 39 40 41 42 43 44 45 46 47 48 49 50
000
ASUS44 KJAN 190810
RWRMS

MISSISSIPPI HOURLY WEATHER ROUNDUP
NATIONAL WEATHER SERVICE JACKSON MS
300 AM CDT SAT APR 19 2014

NOTE: "FAIR: INDICATES FEW OR NO CLOUDS BELOW 12,000 FEET WITH NO
SIGNIFICANT WEATHER AND/OR OBSTRUCTIONS TO VISIBILITY.

MSZ001>002-007>008-010>013-018>021-025>028-034>036-190900-
NORTHWEST MISSISSIPPI

CITY           SKY/WX    TMP DP  RH WIND       PRES   REMARKS
CLARKSDALE       N/A     54  54 100 CALM      30.20S
CLEVELAND      FAIR      54  53  97 NE3       30.18F
GREENWOOD      MOCLDY    51  50  96 CALM      30.18F
GREENVILLE     CLEAR     54  52  93 E5        30.16F
GRENADA        FAIR      46  46 100 CALM      30.18F
OLIVE BRANCH   CLEAR     54  54 100 CALM      30.19S
OXFORD         FAIR      48  46  93 CALM      30.20S
TUNICA         SUNNY     54  52  94 CALM      30.19F
$$

MSZ003>006-009-014>017-022>024-029>033-037>039-190900-
NORTHEAST MISSISSIPPI

CITY           SKY/WX    TMP DP  RH WIND       PRES   REMARKS
BELMONT        FAIR      49  48  98 CALM      30.16S
COLUMBUS AFB   FOG       48  48 100 W2        30.16S VSB 3/4
CORINTH        FAIR      50  48  93 CALM      30.17F FOG
GOLDN TRIANGLE MOCLDY    52  46  82 W3        30.19R
STARKVILLE     FAIR      46  46 100 CALM      30.17S FOG
TUPELO         PTCLDY    52  49  89 CALM      30.16F
$$

MSZ040-058-190900-
CENTRAL MISSISSIPPI

CITY           SKY/WX    TMP DP  RH WIND       PRES   REMARKS
JACKSON INTL   CLEAR     52  50  93 CALM      30.17F
JACKSON HAWKNS CLEAR     53  51  93 CALM      30.17F
MERIDIAN KEY   MOCLDY    51  50  96 CALM      30.16S
MERIDIAN NAS   CLOUDY    50  49  96 W5        30.15F
RAYMOND        HAZE      50  45  81 CALM      30.16F VSB 1/2
VICKSBURG      CLEAR     59  54  83 E6        30.15F
$$

MSZ059>079-190900-
SOUTH MISSISSIPPI

CITY           SKY/WX    TMP DP  RH WIND       PRES   REMARKS
BROOKHAVEN     FAIR      52  52 100 CALM      30.17S FOG
COLUMBIA       FOG       50  48  93 MISG      30.14F VSB 1/2
HATTIESBURG    CLEAR     55  52  89 N5        30.15F
MCCOMB         CLEAR     56  51  84 VRB3      30.13F
NATCHEZ        CLEAR     55  52  88 CALM      30.14S
PINE BELT      CLEAR     54  48  82 N7        30.16F
$$

MSZ080>082-190900-
COASTAL MISSISSIPPI

CITY           SKY/WX    TMP DP  RH WIND       PRES   REMARKS
BILOXI         PTCLDY    56  53  90 N9        30.09F
PASCAGOULA     MOCLDY    55  54  96 N9        30.09F
GULFPORT       CLEAR     58  52  80 N9        30.10F
$$



USA.gov is the U.S. government's official web portal to all federal, state and local government web resources and services.